When you browse on this site, cookies collect data to enhance your experience and personalize the content and advertising you see.
Visit our Privacy Policy to learn more. By continuing to use the site, you agree to this use of cookies and data.
  • In Slovakia
  • List of Countries
  • For 7 days
  • Water Temperature
  • Weather Map
  • Weather Widgets
  • user-avatar
    Login

    Hourly Weather Ghent

    Today, 11 December, Wednesday

    Time Temperature Precipitation Wind Pressure Humidity
    00:00 +5°C° 0 mm 9 mps 757 mmHg 76%
    01:00 +5°C° 0.2 mm 8 mps 757 mmHg 80%
    02:00 +5°C° 0.2 mm 7 mps 756 mmHg 85%
    03:00 +5°C° 0.2 mm 6 mps 756 mmHg 89%
    04:00 +6°C° 0.1 mm 5 mps 756 mmHg 89%
    05:00 +6°C° 0.1 mm 4 mps 756 mmHg 90%
    06:00 +7°C° 0.1 mm 3 mps 755 mmHg 90%
    07:00 +7°C° 0.1 mm 3 mps 755 mmHg 89%
    08:00 +7°C° 0.1 mm 3 mps 755 mmHg 88%
    09:00 +7°C° 0.1 mm 3 mps 754 mmHg 87%
    10:00 +7°C° 0 mm 3 mps 754 mmHg 83%
    11:00 +8°C° 0 mm 3 mps 753 mmHg 78%
    12:00 +8°C° 0 mm 3 mps 753 mmHg 73%
    13:00 +8°C° 0 mm 3 mps 753 mmHg 75%
    14:00 +8°C° 0 mm 3 mps 752 mmHg 76%
    15:00 +7°C° 0 mm 3 mps 752 mmHg 78%
    16:00 +6°C° 0 mm 4 mps 751 mmHg 79%
    17:00 +6°C° 0 mm 4 mps 751 mmHg 80%
    18:00 +5°C° 0 mm 5 mps 751 mmHg 80%
    19:00 +5°C° 0 mm 5 mps 751 mmHg 82%
    20:00 +3°C° 0 mm 6 mps 751 mmHg 83%
    21:00 +3°C° 0 mm 6 mps 751 mmHg 84%
    22:00 +3°C° 0 mm 6 mps 751 mmHg 82%
    23:00 +3°C° 0 mm 5 mps 751 mmHg 80%

    Tomorrow, 12 December, Thursday

    Time Temperature Precipitation Wind Pressure Humidity
    00:00 +3°C° 0 mm 5 mps 751 mmHg 77%
    01:00 +3°C° 0 mm 5 mps 751 mmHg 80%
    02:00 +2°C° 0 mm 5 mps 750 mmHg 82%
    03:00 +3°C° 0 mm 4 mps 750 mmHg 84%
    04:00 +1°C° 0 mm 4 mps 751 mmHg 85%
    05:00 +1°C° 0 mm 4 mps 751 mmHg 85%
    06:00 +1°C° 0 mm 4 mps 751 mmHg 85%
    07:00 +1°C° 0 mm 4 mps 751 mmHg 84%
    08:00 +1°C° 0 mm 4 mps 751 mmHg 84%
    09:00 +1°C° 0 mm 5 mps 750 mmHg 83%
    10:00 +2°C° 0 mm 5 mps 750 mmHg 80%
    11:00 +3°C° 0 mm 6 mps 749 mmHg 76%
    12:00 +3°C° 0 mm 6 mps 749 mmHg 73%
    13:00 +3°C° 0 mm 7 mps 747 mmHg 73%
    14:00 +3°C° 0 mm 7 mps 746 mmHg 73%
    15:00 +3°C° 0 mm 7 mps 744 mmHg 72%
    16:00 +2°C° 0 mm 8 mps 743 mmHg 73%
    17:00 +2°C° 0 mm 9 mps 741 mmHg 74%
    18:00 +2°C° 0 mm 10 mps 739 mmHg 75%
    19:00 +2°C° 1 mm 11 mps 738 mmHg 79%
    20:00 +3°C° 1 mm 12 mps 736 mmHg 82%
    21:00 +3°C° 1 mm 12 mps 734 mmHg 85%
    22:00 +5°C° 0.5 mm 10 mps 733 mmHg 87%
    23:00 +5°C° 0.5 mm 9 mps 732 mmHg 88%

    Day after tomorrow, 13 December, Friday

    Time Temperature Precipitation Wind Pressure Humidity
    00:00 +5°C° 0.5 mm 7 mps 731 mmHg 90%
    01:00 +5°C° 1.5 mm 6 mps 730 mmHg 92%
    02:00 +6°C° 1.5 mm 5 mps 729 mmHg 93%
    03:00 +6°C° 1.5 mm 4 mps 728 mmHg 95%
    04:00 +6°C° 2 mm 5 mps 729 mmHg 90%
    05:00 +5°C° 2 mm 6 mps 729 mmHg 86%
    06:00 +4°C° 2 mm 7 mps 729 mmHg 81%
    07:00 +4°C° 0.1 mm 7 mps 730 mmHg 80%
    08:00 +4°C° 0.1 mm 6 mps 731 mmHg 78%
    09:00 +4°C° 0.1 mm 6 mps 731 mmHg 77%
    10:00 +4°C° 0.1 mm 6 mps 732 mmHg 77%
    11:00 +5°C° 0.1 mm 6 mps 733 mmHg 78%
    12:00 +5°C° 0.1 mm 6 mps 734 mmHg 78%
    13:00 +6°C° 0.1 mm 7 mps 735 mmHg 76%
    14:00 +6°C° 0.1 mm 7 mps 736 mmHg 75%
    15:00 +6°C° 0.1 mm 7 mps 736 mmHg 73%
    16:00 +6°C° 0.1 mm 7 mps 737 mmHg 76%
    17:00 +7°C° 0.1 mm 6 mps 738 mmHg 78%
    18:00 +7°C° 0.1 mm 6 mps 739 mmHg 81%
    19:00 +5°C° 0.1 mm 6 mps 739 mmHg 80%
    20:00 +5°C° 0.1 mm 6 mps 740 mmHg 79%
    21:00 +4°C° 0.1 mm 6 mps 740 mmHg 79%
    22:00 +4°C° 0.1 mm 7 mps 739 mmHg 79%
    23:00 +4°C° 0.1 mm 8 mps 739 mmHg 80%

    14 December, Saturday

    Time Temperature Precipitation Wind Pressure Humidity
    00:00 +3°C° 0.1 mm 9 mps 738 mmHg 81%
    01:00 +5°C° 0.2 mm 9 mps 738 mmHg 77%
    02:00 +5°C° 0.2 mm 9 mps 737 mmHg 73%
    03:00 +6°C° 0.2 mm 9 mps 737 mmHg 70%
    04:00 +6°C° 0.1 mm 10 mps 738 mmHg 69%
    05:00 +5°C° 0.1 mm 10 mps 739 mmHg 69%
    06:00 +4°C° 0.1 mm 11 mps 739 mmHg 68%
    07:00 +3°C° 0 mm 10 mps 740 mmHg 65%
    08:00 +3°C° 0 mm 10 mps 741 mmHg 63%
    09:00 +3°C° 0 mm 10 mps 743 mmHg 60%
    10:00 +5°C° 0 mm 9 mps 743 mmHg 59%
    11:00 +5°C° 0 mm 9 mps 743 mmHg 59%
    12:00 +6°C° 0 mm 9 mps 744 mmHg 58%
    13:00 +5°C° 0.6 mm 8 mps 744 mmHg 66%
    14:00 +5°C° 0.6 mm 7 mps 744 mmHg 73%
    15:00 +4°C° 0.6 mm 6 mps 744 mmHg 81%
    16:00 +4°C° 0.1 mm 6 mps 745 mmHg 78%
    17:00 +4°C° 0.1 mm 6 mps 746 mmHg 75%
    18:00 +3°C° 0.1 mm 6 mps 747 mmHg 72%
    19:00 +3°C° 0 mm 6 mps 747 mmHg 71%
    20:00 +3°C° 0 mm 5 mps 748 mmHg 70%
    21:00 +2°C° 0 mm 5 mps 748 mmHg 70%
    22:00 +2°C° 0 mm 5 mps 748 mmHg 75%
    23:00 +2°C° 0 mm 6 mps 747 mmHg 81%

    15 December, Sunday

    Time Temperature Precipitation Wind Pressure Humidity
    00:00 +2°C° 0 mm 6 mps 747 mmHg 86%
    01:00 +3°C° 0 mm 7 mps 746 mmHg 86%
    02:00 +4°C° 0 mm 8 mps 745 mmHg 86%
    03:00 +3°C° 0 mm 9 mps 744 mmHg 86%
    04:00 +3°C° 0.6 mm 9 mps 744 mmHg 79%
    05:00 +5°C° 0.6 mm 9 mps 744 mmHg 72%
    06:00 +5°C° 0.6 mm 9 mps 744 mmHg 65%
    07:00 +5°C° 0 mm 9 mps 745 mmHg 64%
    08:00 +5°C° 0 mm 9 mps 747 mmHg 63%
    09:00 +5°C° 0 mm 10 mps 748 mmHg 62%
    10:00 +5°C° 0.1 mm 9 mps 749 mmHg 62%
    11:00 +6°C° 0.1 mm 9 mps 750 mmHg 62%
    12:00 +6°C° 0.1 mm 8 mps 751 mmHg 63%
    13:00 +6°C° 0.2 mm 8 mps 751 mmHg 66%
    14:00 +5°C° 0.2 mm 7 mps 751 mmHg 69%
    15:00 +5°C° 0.2 mm 7 mps 752 mmHg 73%
    16:00 +5°C° 0 mm 7 mps 752 mmHg 74%
    17:00 +4°C° 0 mm 7 mps 752 mmHg 74%
    18:00 +4°C° 0 mm 7 mps 752 mmHg 75%
    19:00 +4°C° 0 mm 7 mps 752 mmHg 75%
    20:00 +4°C° 0 mm 7 mps 752 mmHg 75%
    21:00 +4°C° 0 mm 7 mps 752 mmHg 76%
    22:00 +4°C° 0 mm 7 mps 752 mmHg 76%
    23:00 +4°C° 0 mm 7 mps 752 mmHg 76%

    16 December, Monday

    Time Temperature Precipitation Wind Pressure Humidity
    00:00 +4°C° 0 mm 7 mps 752 mmHg 76%
    01:00 +4°C° 0 mm 7 mps 752 mmHg 78%
    02:00 +4°C° 0 mm 6 mps 752 mmHg 81%
    03:00 +4°C° 0 mm 6 mps 751 mmHg 84%
    04:00 +5°C° 0 mm 6 mps 751 mmHg 84%
    05:00 +5°C° 0 mm 6 mps 751 mmHg 84%
    06:00 +5°C° 0 mm 6 mps 751 mmHg 85%
    07:00 +5°C° 0 mm 6 mps 752 mmHg 86%
    08:00 +5°C° 0 mm 6 mps 752 mmHg 87%
    09:00 +5°C° 0 mm 6 mps 752 mmHg 88%
    10:00 +7°C° 0 mm 5 mps 752 mmHg 86%
    11:00 +7°C° 0 mm 5 mps 752 mmHg 84%
    12:00 +8°C° 0 mm 5 mps 751 mmHg 81%
    13:00 +7°C° 0 mm 4 mps 751 mmHg 82%
    14:00 +8°C° 0 mm 3 mps 751 mmHg 83%
    15:00 +8°C° 0 mm 2 mps 750 mmHg 84%
    16:00 +8°C° 0.7 mm 2 mps 750 mmHg 88%
    17:00 +7°C° 0.7 mm 2 mps 749 mmHg 91%
    18:00 +7°C° 0.7 mm 3 mps 749 mmHg 95%
    19:00 +7°C° 1.8 mm 3 mps 748 mmHg 96%
    20:00 +7°C° 1.8 mm 3 mps 748 mmHg 96%
    21:00 +7°C° 1.8 mm 3 mps 747 mmHg 97%
    22:00 +8°C° 1.9 mm 3 mps 747 mmHg 96%
    23:00 +8°C° 1.9 mm 3 mps 746 mmHg 96%
    Show more